Location: Berg
(47.2344°N, 9.5296°E)
Time: 05:31:35
(UTC+00:00)

BEESAT 2 - Pass Details

Date: 05 December 2021
Orbit: 498 x 513 km, 64.9° (Epoch: 19 January)

Event Time Altitude Azimuth Distance (km) Brightness Sun altitude
Exits shadow 05:30:22 18° 320° (NW) 1,317 ? -13.3°
Maximum altitude 05:33:12 79° 236° (SW) 531 ? -12.9°
Drops below altitude 10° 05:37:05 10° 149° (SSE) 1,735 ? -12.3°
Sets 05:39:14 0° 148° (SSE) 2,614 ? -11.9°
